Hourly Weather Roundup
Issued by NWS Central Illinois

Home | Current Version | Previous Version | Text Only | Print | Product List | Glossary On
Versions: 1 2 3 4 5 6 7 8 9 10 11 12 13 14 15 16 17 18 19 20 21 22 23 24 25 26 27 28 29 30 31 32 33 34 35 36 37 38 39 40 41 42 43 44 45 46 47 48 49 50
000
NZUS43 KILX 171710
HWRILX

Area Weather Roundup
National Weather Service Lincoln IL
1200 PM CDT THU AUG 17 2017

NOTE:  "FAIR" indicates few or no clouds below 12,000 feet, with
       no sigificant weather and/or obstructions to visibility.


CITY           SKY/WX    TMP DP  RH WIND       PRES   REMARKS
Bloomington    CLOUDY    74  68  81 SW17G23   29.85S
Champaign      PTSUNNY   78  69  73 SW16G23   29.85F HX  80
Danville       PTSUNNY   81  71  71 SW15G22   29.82S HX  85
Decatur        CLOUDY    76  69  79 W15       29.86S
Effingham      MOSUNNY   82  71  68 SW13G22   29.90F HX  86
Flora          CLOUDY    79  73  81 SW13      29.91F HX  82
Galesburg      CLOUDY    78  67  68 W14G20    29.82F HX  80
Jacksonville   PTSUNNY   77  68  74 SW16      29.87S
Lacon          PTSUNNY   78  67  70 SW15G22   29.79F
Lawrenceville  CLOUDY    80  72  76 SW12      29.91F HX  84
Litchfield     MOSUNNY   80  70  73 W10       29.89F HX  82
$$


CITY           SKY/WX    TMP DP  RH WIND       PRES   REMARKS
Lincoln        CLOUDY    78  71  80 W5        29.85S
Macomb         CLOUDY    78  68  70 SW15G21   29.85F HX  80
Mattoon        CLOUDY    79  71  76 SW12G21   29.88S HX  82
Mt Carmel AP   CLOUDY    80  72  77 W13       29.91F HX  84
Olney-Noble AP LGT RAIN  76  74  93 SW6       29.92F
Paris AP       PTSUNNY   81  71  71 SW14G25   29.87S HX  85
Peoria         CLOUDY    80  67  64 W13G23    29.82F HX  82
Pontiac        CLOUDY    76  73  88 SW15      29.82S
Rantoul        CLOUDY    80  71  73 SW13G21   29.84S HX  83
Robinson       CLOUDY    78  72  80 SW9       29.91F HX  81
Springfield    CLOUDY    80  71  74 SW10G20   29.86F HX  84
Taylorville    PTSUNNY   78  71  80 W9G20     29.88S HX  80
$$

...REGIONAL REPORTS...


CITY           SKY/WX    TMP DP  RH WIND       PRES   REMARKS
Chicago O`Hare PTSUNNY   77  70  79 S12G21    29.75F
Kankakee       CLOUDY    77  70  77 SW18G24   29.81S
Moline         CLOUDY    77  64  64 W22G29    29.78F
Mount Sterling CLOUDY    77  67  71 SW14G20   29.86S
Mount Vernon   CLOUDY    77  72  84 SW10      29.91F
Pittsfield     CLOUDY    76  70  81 SW14G20   29.89S
Quincy         CLOUDY    80  66  62 SW14G24   29.87S HX  82
Rockford       PTSUNNY   77  66  68 W18G28    29.75R
$$


CITY           SKY/WX    TMP DP  RH WIND       PRES   REMARKS
Burlington     MOSUNNY   80  67  64 W10       29.82F HX  82
Cedar Rapids   CLOUDY    75  65  70 W14       29.78R
Des Moines     CLOUDY    73  62  68 W14       29.85R
Kirksville     CLOUDY    80  64  58 W12       29.89F HX  82
Ottumwa        CLOUDY    77  64  64 W20       29.84R
St Louis       MOSUNNY   82  70  66 W12       29.90F HX  86
$$


CITY           SKY/WX    TMP DP  RH WIND       PRES   REMARKS
Terre Haute    MOSUNNY   81  68  64 SW15G22   29.87F HX  84
Evansville     PTSUNNY   86  72  62 W15       29.92F HX  92
Indianapolis   PTSUNNY   81  71  71 SW23      29.86F HX  85
Lafayette      MOSUNNY   81  71  71 SW13G21   29.81F HX  85
Madison        PTSUNNY   73  65  75 VRB7G22   29.70R
Milwaukee      PTSUNNY   78  69  73 SW15      29.70F HX  80
$$






USA.gov is the U.S. government's official web portal to all federal, state and local government web resources and services.